Flag for Italy Weather past 2 weeks in Naples, Italy

Now
43 °F

Passing clouds.


Feels Like: 39 °F
Forecast: 42 / 48 °F
Wind: 6 mph from Northeast

Location: Naples / Capodichino

Current Time: Dec 29, 2014 at 12:48:19 AM

Latest Report: Dec 28, 2014 at 11:50 PM


Visibility: N/A

Pressure: 29.62 "Hg

Humidity: 81%

Dew point: 37 °F

Location of NaplesLocation

Historic Weather in Naples — Graph

°F

Naples temperature yesterday

Maximum temperature yesterday: 57 °F (at 12:50 AM)
Minimum temperature yesterday: 43 °F (at 11:20 PM)
Average temperature yesterday: 51 °F

Past Weeks' High & Low Weather Summary

 TemperatureHumidityPressure
High64 °F (Dec 14, 11:50 AM)100% (Dec 16, 12:20 PM)30.48 "Hg (Dec 16, 12:20 PM)
Low36 °F (Dec 26, 12:50 AM)30% (Dec 27, 10:50 AM)29.42 "Hg (Dec 28, 10:50 AM)
Average54 °F74%30.12 "Hg
* Reported Dec 13 11:20 PM — Dec 28 11:20 PM, Naples, Weather by CustomWeather, © 2014

Note: Actual official high and low records may vary slightly from our data, if they occured in-between our weather recording intervals... More about our weather records

Advertising

Naples weather history for previous 24 hours

 ConditionsComfort  
Time TempWeatherWind HumidityBarometerVisibility
11:20 PM
Dec 28
43 °FPassing clouds.5 mph87%29.62 "HgN/A
10:50 PM45 °FPassing clouds.6 mph81%29.62 "HgN/A
10:20 PM45 °FPassing clouds.3 mph76%29.59 "HgN/A
9:50 PM45 °FPassing clouds.7 mph76%29.56 "HgN/A
9:20 PM45 °FPassing clouds.5 mph81%29.56 "HgN/A
8:50 PM46 °FPassing clouds.3 mph76%29.53 "HgN/A
8:20 PM48 °FPassing clouds.7 mph71%29.50 "HgN/A
7:50 PM46 °FPassing clouds.5 mph82%29.50 "HgN/A
7:20 PM46 °FPassing clouds.1 mph76%29.47 "HgN/A
6:50 PM48 °FPassing clouds.No wind76%29.47 "HgN/A
6:20 PM48 °FPassing clouds.1 mph76%29.47 "HgN/A
5:50 PM48 °FPartly cloudy.3 mph76%29.45 "HgN/A
5:20 PM48 °FPartly cloudy.3 mph76%29.45 "HgN/A
4:50 PM50 °FPartly cloudy.6 mph76%29.42 "HgN/A
4:20 PM50 °FBroken clouds.3 mph71%29.42 "HgN/A
3:50 PM50 °FBroken clouds.6 mph76%29.42 "HgN/A
3:20 PM50 °FRain. Broken clouds.9 mph71%29.42 "HgN/A
2:50 PM54 °FBroken clouds.5 mph63%29.42 "HgN/A
2:20 PM54 °FBroken clouds.6 mph67%29.42 "HgN/A
1:50 PM54 °FBroken clouds.5 mph67%29.42 "Hg5 mi
1:20 PM54 °FBroken clouds.6 mph77%29.42 "Hg5 mi
12:50 PM55 °FBroken clouds.8 mph63%29.42 "HgN/A
12:20 PM55 °FBroken clouds.9 mph59%29.42 "HgN/A
11:50 AM55 °FPartly sunny.6 mph72%29.42 "HgN/A
11:20 AM55 °FPartly sunny.3 mph67%29.45 "Hg5 mi
10:50 AM55 °FPartly sunny.7 mph67%29.42 "HgN/A
10:20 AM55 °FPartly sunny.2 mph67%29.45 "HgN/A
9:50 AM55 °FPartly sunny.3 mph67%29.45 "HgN/A
9:20 AM54 °FPartly sunny.2 mph72%29.45 "HgN/A
8:50 AM52 °FPartly sunny.No wind88%29.45 "HgN/A
8:20 AM52 °FPartly sunny.No wind82%29.45 "HgN/A
7:20 AM50 °FPassing clouds.3 mph88%29.45 "Hg5 mi
6:50 AM52 °FLight rain. Passing clouds.1 mph82%29.45 "HgN/A
6:20 AM52 °FRain. Passing clouds.5 mph82%29.45 "HgN/A
5:50 AM54 °FPassing clouds.6 mph77%29.45 "HgN/A
5:20 AM54 °FPassing clouds.3 mph72%29.45 "HgN/A
3:50 AM54 °FLight rain. Passing clouds.15 mph72%29.47 "HgN/A
3:20 AM54 °FThunderstorms. Passing clouds.17 mph67%29.47 "Hg5 mi
2:50 AM54 °FThunderstorms. Passing clouds.12 mph82%29.47 "Hg5 mi
2:20 AM52 °FThunderstorms. Passing clouds.10 mph88%29.50 "Hg5 mi
1:50 AM48 °FStrong thunderstorms. Passing clouds.17 mph87%29.53 "Hg1 mi
1:20 AM57 °FLight rain. Passing clouds.21 mph82%29.50 "Hg5 mi
12:50 AM57 °FLight rain. Passing clouds.20 mph82%29.53 "Hg5 mi
12:20 AM55 °FLight rain. Passing clouds.18 mph88%29.53 "Hg5 mi
Weather by CustomWeather, © 2014

See weather overviewHow to use our weather pages